Time,TemperatureF,DewpointF,PressureIn,WindDirection,WindDirectionDegrees,WindSpeedMPH,WindSpeedGustMPH,Humidity,HourlyPrecipIn,Conditions,Clouds,dailyrainin,SolarRadiationWatts/m^2,SoftwareType,DateUTC
2013-07-13 00:01:00,64.0,52.0,-100.00,North,10,4.0,15.0,65,0.00,,,0.01,0.000000,,2013-07-13 06:01:00,
2013-07-13 00:11:00,64.0,52.0,-100.00,North,10,4.0,15.0,65,0.00,,,0.01,0.000000,,2013-07-13 06:11:00,
2013-07-13 00:22:00,64.0,52.0,-100.00,North,10,4.0,15.0,65,0.00,,,0.01,0.000000,,2013-07-13 06:22:00,
2013-07-13 00:30:00,65.0,51.0,-100.00,North,353,4.0,9.0,61,0.00,,,0.01,0.000000,,2013-07-13 06:30:00,
2013-07-13 00:52:00,65.0,51.0,-100.00,North,353,4.0,9.0,61,0.00,,,0.01,0.000000,,2013-07-13 06:52:00,
2013-07-13 01:02:00,65.0,51.0,-100.00,North,353,4.0,9.0,61,0.00,,,0.01,0.000000,,2013-07-13 07:02:00,
2013-07-13 01:11:00,65.0,51.0,-100.00,North,353,4.0,9.0,61,0.00,,,0.01,0.000000,,2013-07-13 07:11:00,
2013-07-13 01:22:00,65.0,51.0,-100.00,North,353,4.0,9.0,61,0.00,,,0.01,0.000000,,2013-07-13 07:22:00,
2013-07-13 01:30:00,61.0,51.0,-100.00,NW,316,0.0,6.0,70,0.00,,,0.01,0.000000,,2013-07-13 07:30:00,
2013-07-13 02:02:00,61.0,51.0,-100.00,NW,316,0.0,6.0,70,0.00,,,0.01,0.000000,,2013-07-13 08:02:00,
2013-07-13 02:11:00,61.0,51.0,-100.00,NW,316,0.0,6.0,70,0.00,,,0.01,0.000000,,2013-07-13 08:11:00,
2013-07-13 02:22:00,61.0,51.0,-100.00,NW,316,0.0,6.0,70,0.00,,,0.01,0.000000,,2013-07-13 08:22:00,
2013-07-13 02:30:00,61.0,50.0,-100.00,North,9,2.0,4.0,68,0.00,,,0.01,0.000000,,2013-07-13 08:30:00,
2013-07-13 02:52:00,61.0,50.0,-100.00,North,9,2.0,4.0,68,0.00,,,0.01,0.000000,,2013-07-13 08:52:00,
2013-07-13 03:02:00,61.0,50.0,-100.00,North,9,2.0,4.0,68,0.00,,,0.01,0.000000,,2013-07-13 09:02:00,
2013-07-13 03:11:00,61.0,50.0,-100.00,North,9,2.0,4.0,68,0.00,,,0.01,0.000000,,2013-07-13 09:11:00,
2013-07-13 03:22:00,61.0,50.0,-100.00,North,9,2.0,4.0,68,0.00,,,0.01,0.000000,,2013-07-13 09:22:00,
2013-07-13 03:30:00,59.0,48.0,-100.00,NNE,20,2.0,4.0,68,0.00,,,0.01,0.000000,,2013-07-13 09:30:00,
2013-07-13 04:01:00,59.0,48.0,-100.00,NNE,20,2.0,4.0,68,0.00,,,0.01,0.000000,,2013-07-13 10:01:00,
2013-07-13 04:11:00,59.0,48.0,-100.00,NNE,20,2.0,4.0,68,0.00,,,0.01,0.000000,,2013-07-13 10:11:00,
2013-07-13 04:22:00,59.0,48.0,-100.00,NNE,20,2.0,4.0,68,0.00,,,0.01,0.000000,,2013-07-13 10:22:00,
2013-07-13 04:30:00,59.0,48.0,-100.00,NNE,14,3.0,4.0,68,0.00,,,0.01,0.000000,,2013-07-13 10:30:00,
2013-07-13 05:02:00,59.0,48.0,-100.00,NNE,14,3.0,4.0,68,0.00,,,0.01,0.000000,,2013-07-13 11:02:00,
2013-07-13 05:11:00,59.0,48.0,-100.00,NNE,14,3.0,4.0,68,0.00,,,0.01,0.000000,,2013-07-13 11:11:00,
2013-07-13 05:22:00,59.0,48.0,-100.00,NNE,14,3.0,4.0,68,0.00,,,0.01,0.000000,,2013-07-13 11:22:00,
2013-07-13 05:30:00,60.0,49.0,-100.00,NNE,30,3.0,5.0,67,0.00,,,0.01,0.000000,,2013-07-13 11:30:00,
2013-07-13 05:52:00,60.0,49.0,-100.00,NNE,30,3.0,5.0,67,0.00,,,0.01,0.000000,,2013-07-13 11:52:00,
2013-07-13 06:02:00,60.0,49.0,-100.00,NNE,30,3.0,5.0,67,0.00,,,0.01,0.000000,,2013-07-13 12:02:00,
2013-07-13 06:12:00,60.0,49.0,-100.00,NNE,30,3.0,5.0,67,0.00,,,0.01,0.000000,,2013-07-13 12:12:00,
2013-07-13 06:22:00,60.0,49.0,-100.00,NNE,30,3.0,5.0,67,0.00,,,0.01,0.000000,,2013-07-13 12:22:00,
2013-07-13 06:30:00,60.0,49.0,-100.00,North,359,3.0,5.0,68,0.00,,,0.01,4.000000,,2013-07-13 12:30:00,
2013-07-13 07:01:00,60.0,49.0,-100.00,North,359,3.0,5.0,68,0.00,,,0.01,4.000000,,2013-07-13 13:01:00,
2013-07-13 07:12:00,60.0,49.0,-100.00,North,359,3.0,5.0,68,0.00,,,0.01,4.000000,,2013-07-13 13:12:00,
2013-07-13 07:22:00,60.0,49.0,-100.00,North,359,3.0,5.0,68,0.00,,,0.01,4.000000,,2013-07-13 13:22:00,
2013-07-13 07:30:00,64.0,51.0,-100.00,NNE,18,3.0,5.0,62,0.00,,,0.01,65.000000,,2013-07-13 13:30:00,
2013-07-13 08:02:00,64.0,51.0,-100.00,NNE,18,3.0,5.0,62,0.00,,,0.01,65.000000,,2013-07-13 14:02:00,
2013-07-13 08:11:00,64.0,51.0,-100.00,NNE,18,3.0,5.0,62,0.00,,,0.01,65.000000,,2013-07-13 14:11:00,
2013-07-13 08:22:00,64.0,51.0,-100.00,NNE,18,3.0,5.0,62,0.00,,,0.01,65.000000,,2013-07-13 14:22:00,
2013-07-13 08:30:00,73.0,52.0,-100.00,South,172,3.0,6.0,47,0.00,,,0.01,372.000000,,2013-07-13 14:30:00,
2013-07-13 09:12:00,73.0,52.0,-100.00,South,172,3.0,6.0,47,0.00,,,0.01,372.000000,,2013-07-13 15:12:00,
2013-07-13 09:22:00,73.0,52.0,-100.00,South,172,3.0,6.0,47,0.00,,,0.01,372.000000,,2013-07-13 15:22:00,
2013-07-13 09:30:00,75.0,53.0,-100.00,SSW,203,5.0,8.0,46,0.00,,,0.01,587.000000,,2013-07-13 15:30:00,
2013-07-13 09:53:00,75.0,53.0,-100.00,SSW,203,5.0,8.0,46,0.00,,,0.01,587.000000,,2013-07-13 15:53:00,
2013-07-13 10:02:00,75.0,53.0,-100.00,SSW,203,5.0,8.0,46,0.00,,,0.01,587.000000,,2013-07-13 16:02:00,
2013-07-13 10:11:00,75.0,53.0,-100.00,SSW,203,5.0,8.0,46,0.00,,,0.01,587.000000,,2013-07-13 16:11:00,
2013-07-13 10:22:00,75.0,53.0,-100.00,SSW,203,5.0,8.0,46,0.00,,,0.01,587.000000,,2013-07-13 16:22:00,
2013-07-13 10:30:00,78.0,51.0,-100.00,South,171,5.0,9.0,39,0.00,,,0.01,796.000000,,2013-07-13 16:30:00,
2013-07-13 10:53:00,78.0,51.0,-100.00,South,171,5.0,9.0,39,0.00,,,0.01,796.000000,,2013-07-13 16:53:00,
2013-07-13 11:01:00,78.0,51.0,-100.00,South,171,5.0,9.0,39,0.00,,,0.01,796.000000,,2013-07-13 17:01:00,
2013-07-13 11:12:00,78.0,51.0,-100.00,South,171,5.0,9.0,39,0.00,,,0.01,796.000000,,2013-07-13 17:12:00,
2013-07-13 11:22:00,78.0,51.0,-100.00,South,171,5.0,9.0,39,0.00,,,0.01,796.000000,,2013-07-13 17:22:00,
2013-07-13 11:30:00,81.0,51.0,-100.00,South,182,5.0,9.0,35,0.00,,,0.01,990.000000,,2013-07-13 17:30:00,
2013-07-13 11:52:00,81.0,51.0,-100.00,South,182,5.0,9.0,35,0.00,,,0.01,990.000000,,2013-07-13 17:52:00,
2013-07-13 12:11:00,81.0,51.0,-100.00,South,182,5.0,9.0,35,0.00,,,0.01,990.000000,,2013-07-13 18:11:00,
2013-07-13 12:22:00,81.0,51.0,-100.00,South,182,5.0,9.0,35,0.00,,,0.01,990.000000,,2013-07-13 18:22:00,
2013-07-13 12:30:00,84.0,48.0,-100.00,SSW,211,6.0,14.0,29,0.00,,,0.01,1163.000000,,2013-07-13 18:30:00,
2013-07-13 13:22:00,84.0,48.0,-100.00,SSW,211,6.0,14.0,29,0.00,,,0.01,1163.000000,,2013-07-13 19:22:00,
2013-07-13 13:30:00,85.0,49.0,-100.00,SSW,210,7.0,12.0,29,0.00,,,0.01,926.000000,,2013-07-13 19:30:00,
2013-07-13 13:52:00,85.0,49.0,-100.00,SSW,210,7.0,12.0,29,0.00,,,0.01,926.000000,,2013-07-13 19:52:00,
2013-07-13 14:01:00,85.0,49.0,-100.00,SSW,210,7.0,12.0,29,0.00,,,0.01,926.000000,,2013-07-13 20:01:00,
2013-07-13 14:11:00,85.0,49.0,-100.00,SSW,210,7.0,12.0,29,0.00,,,0.01,926.000000,,2013-07-13 20:11:00,
2013-07-13 14:22:00,85.0,49.0,-100.00,SSW,210,7.0,12.0,29,0.00,,,0.01,926.000000,,2013-07-13 20:22:00,
2013-07-13 14:30:00,85.0,43.0,-100.00,SSW,213,6.0,14.0,23,0.00,,,0.01,910.000000,,2013-07-13 20:30:00,
2013-07-13 14:53:00,85.0,43.0,-100.00,SSW,213,6.0,14.0,23,0.00,,,0.01,910.000000,,2013-07-13 20:53:00,
2013-07-13 15:02:00,85.0,43.0,-100.00,SSW,213,6.0,14.0,23,0.00,,,0.01,910.000000,,2013-07-13 21:02:00,
2013-07-13 15:12:00,85.0,43.0,-100.00,SSW,213,6.0,14.0,23,0.00,,,0.01,910.000000,,2013-07-13 21:12:00,
2013-07-13 15:22:00,85.0,43.0,-100.00,SSW,213,6.0,14.0,23,0.00,,,0.01,910.000000,,2013-07-13 21:22:00,
2013-07-13 15:30:00,88.0,41.0,-100.00,West,269,5.0,15.0,19,0.00,,,0.01,1040.000000,,2013-07-13 21:30:00,
2013-07-13 15:53:00,88.0,41.0,-100.00,West,269,5.0,15.0,19,0.00,,,0.01,1040.000000,,2013-07-13 21:53:00,
2013-07-13 16:01:00,88.0,41.0,-100.00,West,269,5.0,15.0,19,0.00,,,0.01,1040.000000,,2013-07-13 22:01:00,
2013-07-13 16:12:00,88.0,41.0,-100.00,West,269,5.0,15.0,19,0.00,,,0.01,1040.000000,,2013-07-13 22:12:00,
2013-07-13 16:22:00,88.0,41.0,-100.00,West,269,5.0,15.0,19,0.00,,,0.01,1040.000000,,2013-07-13 22:22:00,
2013-07-13 16:30:00,88.0,42.0,-100.00,West,262,6.0,13.0,20,0.00,,,0.01,874.000000,,2013-07-13 22:30:00,
2013-07-13 16:53:00,88.0,42.0,-100.00,West,262,6.0,13.0,20,0.00,,,0.01,874.000000,,2013-07-13 22:53:00,
2013-07-13 17:01:00,88.0,42.0,-100.00,West,262,6.0,13.0,20,0.00,,,0.01,874.000000,,2013-07-13 23:01:00,
2013-07-13 17:11:00,88.0,42.0,-100.00,West,262,6.0,13.0,20,0.00,,,0.01,874.000000,,2013-07-13 23:11:00,
2013-07-13 17:22:00,88.0,42.0,-100.00,West,262,6.0,13.0,20,0.00,,,0.01,874.000000,,2013-07-13 23:22:00,
2013-07-13 17:30:00,85.0,41.0,-100.00,West,260,5.0,12.0,21,0.00,,,0.01,541.000000,,2013-07-13 23:30:00,
2013-07-13 17:53:00,85.0,41.0,-100.00,West,260,5.0,12.0,21,0.00,,,0.01,541.000000,,2013-07-13 23:53:00,
2013-07-13 18:01:00,85.0,41.0,-100.00,West,260,5.0,12.0,21,0.00,,,0.01,541.000000,,2013-07-14 00:01:00,
2013-07-13 18:11:00,85.0,41.0,-100.00,West,260,5.0,12.0,21,0.00,,,0.01,541.000000,,2013-07-14 00:11:00,
2013-07-13 18:21:00,85.0,41.0,-100.00,West,260,5.0,12.0,21,0.00,,,0.01,541.000000,,2013-07-14 00:21:00,
2013-07-13 18:30:00,85.0,42.0,-100.00,SSW,213,5.0,11.0,22,0.00,,,0.01,446.000000,,2013-07-14 00:30:00,
2013-07-13 18:53:00,85.0,42.0,-100.00,SSW,213,5.0,11.0,22,0.00,,,0.01,446.000000,,2013-07-14 00:53:00,
2013-07-13 19:02:00,85.0,42.0,-100.00,SSW,213,5.0,11.0,22,0.00,,,0.01,446.000000,,2013-07-14 01:02:00,
2013-07-13 19:11:00,85.0,42.0,-100.00,SSW,213,5.0,11.0,22,0.00,,,0.01,446.000000,,2013-07-14 01:11:00,
2013-07-13 19:22:00,85.0,42.0,-100.00,SSW,213,5.0,11.0,22,0.00,,,0.01,446.000000,,2013-07-14 01:22:00,
2013-07-13 19:30:00,81.0,42.0,-100.00,WSW,241,5.0,10.0,25,0.00,,,0.01,109.000000,,2013-07-14 01:30:00,
2013-07-13 19:52:00,81.0,42.0,-100.00,WSW,241,5.0,10.0,25,0.00,,,0.01,109.000000,,2013-07-14 01:52:00,
2013-07-13 20:01:00,81.0,42.0,-100.00,WSW,241,5.0,10.0,25,0.00,,,0.01,109.000000,,2013-07-14 02:01:00,
2013-07-13 20:11:00,81.0,42.0,-100.00,WSW,241,5.0,10.0,25,0.00,,,0.01,109.000000,,2013-07-14 02:11:00,
2013-07-13 20:22:00,81.0,42.0,-100.00,WSW,241,5.0,10.0,25,0.00,,,0.01,109.000000,,2013-07-14 02:22:00,
2013-07-13 20:30:00,77.0,46.0,-100.00,South,182,4.0,10.0,34,0.00,,,0.01,42.000000,,2013-07-14 02:30:00,
2013-07-13 20:53:00,77.0,46.0,-100.00,South,182,4.0,10.0,34,0.00,,,0.01,42.000000,,2013-07-14 02:53:00,
2013-07-13 21:01:00,77.0,46.0,-100.00,South,182,4.0,10.0,34,0.00,,,0.01,42.000000,,2013-07-14 03:01:00,
2013-07-13 21:11:00,77.0,46.0,-100.00,South,182,4.0,10.0,34,0.00,,,0.01,42.000000,,2013-07-14 03:11:00,
2013-07-13 21:22:00,77.0,46.0,-100.00,South,182,4.0,10.0,34,0.00,,,0.01,42.000000,,2013-07-14 03:22:00,
2013-07-13 21:30:00,75.0,45.0,-100.00,South,182,4.0,11.0,34,0.00,,,0.00,1.000000,,2013-07-14 03:30:00,
2013-07-13 21:53:00,75.0,45.0,-100.00,South,182,4.0,11.0,34,0.00,,,0.00,1.000000,,2013-07-14 03:53:00,
2013-07-13 22:02:00,75.0,45.0,-100.00,South,182,4.0,11.0,34,0.00,,,0.00,1.000000,,2013-07-14 04:02:00,
2013-07-13 22:11:00,75.0,45.0,-100.00,South,182,4.0,11.0,34,0.00,,,0.00,1.000000,,2013-07-14 04:11:00,
2013-07-13 22:22:00,75.0,45.0,-100.00,South,182,4.0,11.0,34,0.00,,,0.00,1.000000,,2013-07-14 04:22:00,
2013-07-13 22:30:00,74.0,49.0,-100.00,SSW,198,4.0,10.0,41,0.00,,,0.00,0.000000,,2013-07-14 04:30:00,
2013-07-13 23:02:00,74.0,49.0,-100.00,SSW,198,4.0,10.0,41,0.00,,,0.00,0.000000,,2013-07-14 05:02:00,
2013-07-13 23:11:00,74.0,49.0,-100.00,SSW,198,4.0,10.0,41,0.00,,,0.00,0.000000,,2013-07-14 05:11:00,
2013-07-13 23:23:00,74.0,49.0,-100.00,SSW,198,4.0,10.0,41,0.00,,,0.00,0.000000,,2013-07-14 05:23:00,
2013-07-13 23:30:00,72.0,48.0,-100.00,ESE,114,2.0,6.0,42,0.00,,,0.00,0.000000,,2013-07-14 05:30:00,
2013-07-13 23:53:00,72.0,48.0,-100.00,ESE,114,2.0,6.0,42,0.00,,,0.00,0.000000,,2013-07-14 05:53:00,